EW9515 Weather Reports


time (UTC)temp
C
wind
direction
speed
KPH
gust
KPH
rain 1hr
cm
rain 24hr
cm
rain mn
cm
humidity
%
barometer
mb
20260505023950 26 68 6.4 11.3 0.00 0.00 0.00 74 1013.2
20260505022930 26 68 6.4 8.0 0.00 0.00 0.00 73 1013.2
20260505021928 26 90 6.4 9.7 0.00 0.00 0.00 73 1013.3
20260505020936 26 68 9.7 12.9 0.00 0.00 0.00 71 1013.5
20260505015930 27 45 1.6 3.2 0.00 0.00 0.00 70 1013.6
20260505014931 26 23 1.6 3.2 0.00 0.00 0.00 71 1013.7
20260505013930 26 45 4.8 9.7 0.00 0.00 0.00 72 1013.8
20260505012930 26 45 3.2 4.8 0.00 0.00 0.00 72 1014.2
20260505011931 26 45 3.2 6.4 0.00 0.00 0.00 72 1014.5
20260505010930 26 45 3.2 6.4 0.00 0.00 0.00 71 1014.7
20260505005930 26 45 6.4 9.7 0.00 0.00 0.00 70 1014.8
20260505004949 26 68 3.2 4.8 0.00 0.00 0.00 72 1014.8
20260505003930 25 68 4.8 8.0 0.00 0.00 0.00 72 1014.8
20260505002930 26 45 6.4 9.7 0.00 0.00 0.00 71 1014.9
20260505001930 25 68 3.2 6.4 0.00 0.00 0.00 71 1015.1
20260505000930 25 23 3.2 3.2 0.00 0.00 0.00 73 1015.2
20260504235949 25 0 3.2 6.4 0.00 0.00 0.00 72 1015.1
20260504234931 25 0 3.2 4.8 0.00 0.03 0.00 74 1015.1
20260504233932 25 0 4.8 8.0 0.00 0.03 0.00 73 1015.2
20260504232935 25 0 4.8 6.4 0.00 0.03 0.00 75 1015.3
20260504231930 25 180 3.2 4.8 0.00 0.03 0.00 75 1015.4
20260504230930 25 180 1.6 3.2 0.00 0.03 0.00 75 1015.6
20260504225949 24 203 1.6 3.2 0.00 0.03 0.00 77 1015.6
20260504224930 23 203 1.6 3.2 0.00 0.03 0.00 79 1015.5
20260504223940 23 203 3.2 6.4 0.00 0.03 0.00 80 1015.5
20260504222930 23 203 3.2 4.8 0.00 0.03 0.00 80 1015.5
20260504221929 23 0.0 1.6 0.00 0.03 0.00 83 1015.5
20260504220931 22 203 1.6 3.2 0.00 0.03 0.00 86 1015.4
20260504215929 21 203 3.2 4.8 0.00 0.03 0.00 88 1015.4
20260504214932 21 203 1.6 1.6 0.00 0.03 0.00 91 1015.3
20260504213929 20 180 3.2 4.8 0.00 0.03 0.00 92 1015.4
20260504212930 20 180 1.6 3.2 0.00 0.03 0.00 93 1015.4
20260504211930 20 0.0 1.6 0.00 0.03 0.00 94 1015.3
20260504210934 19 0.0 0.0 0.00 0.03 0.00 94 1015.1
20260504205929 18 0.0 0.0 0.00 0.03 0.00 94 1015.0
20260504204930 18 0.0 1.6 0.00 0.03 0.00 94 1015.0
20260504203929 18 0.0 1.6 0.00 0.03 0.00 94 1014.8
20260504202934 18 0.0 0.0 0.00 0.03 0.00 94 1014.8
20260504201930 18 0.0 1.6 0.00 0.03 0.00 94 1014.7
20260504200929 18 0.0 1.6 0.00 0.03 0.00 93 1014.6
20260504195949 18 180 1.6 1.6 0.00 0.03 0.00 94 1014.4
20260504194930 18 180 1.6 3.2 0.00 0.03 0.00 93 1014.4
20260504193930 18 0.0 0.0 0.00 0.03 0.00 93 1014.3
20260504192932 18 0.0 1.6 0.00 0.03 0.00 93 1014.3
20260504191928 18 180 1.6 1.6 0.00 0.03 0.00 93 1014.1
20260504190928 18 0.0 0.0 0.00 0.03 0.00 93 1014.0
20260504185929 18 0.0 0.0 0.00 0.03 0.00 93 1014.0
20260504184949 18 0.0 1.6 0.00 0.03 0.00 93 1013.9
20260504183929 18 0.0 0.0 0.00 0.03 0.00 93 1013.9
20260504182930 18 0.0 0.0 0.00 0.03 0.00 93 1013.9
20260504181928 18 0.0 0.0 0.00 0.03 0.00 92 1013.9
20260504180930 19 0.0 0.0 0.00 0.03 0.00 92 1013.8
20260504175930 19 180 1.6 1.6 0.00 0.03 0.00 92 1013.9
20260504174948 19 0.0 1.6 0.00 0.03 0.00 92 1013.8
20260504173932 19 0.0 0.0 0.00 0.03 0.00 92 1013.8
20260504172928 20 0.0 0.0 0.00 0.05 0.00 92 1013.8
20260504171929 20 0.0 1.6 0.00 0.05 0.00 92 1013.8
20260504170929 20 0.0 0.0 0.00 0.05 0.00 92 1013.8
20260504151009 20 0.0 1.6 0.00 0.05 0.00 92 1014.4
20260504140931 20 0.0 1.6 0.00 0.05 0.00 91 1014.9
20260504081928 22 90 1.6 1.6 0.00 0.05 0.05 86 1015.2
20260504080929 22 90 1.6 3.2 0.00 0.05 0.05 86 1015.0
20260504045929 25 90 4.8 11.3 0.00 0.05 0.05 76 1014.2
20260504044928 25 68 6.4 11.3 0.00 0.05 0.05 77 1014.0
20260504043934 25 68 6.4 11.3 0.00 0.05 0.05 75 1014.1
20260504042928 25 68 9.7 14.5 0.00 0.05 0.05 74 1014.1
20260504041929 25 135 3.2 4.8 0.00 0.05 0.05 73 1014.1
20260504040928 25 90 8.0 14.5 0.00 0.05 0.05 75 1014.2
20260504035927 25 90 8.0 12.9 0.00 0.05 0.05 73 1014.4
20260504034948 26 90 8.0 14.5 0.00 0.05 0.05 73 1014.4
20260504033928 26 90 4.8 8.0 0.00 0.05 0.05 72 1014.5
20260504032929 26 113 8.0 11.3 0.00 0.05 0.05 71 1014.5
20260504031928 26 113 6.4 8.0 0.00 0.05 0.05 72 1014.5
20260504030948 25 90 9.7 12.9 0.00 0.05 0.05 71 1014.7
20260504025929 25 113 6.4 11.3 0.00 0.05 0.05 73 1014.8
20260504024932 25 68 3.2 6.4 0.00 0.05 0.05 75 1014.9